Location: Ferintosh
(52.7647°N, 112.9692°W)
Time: 16:15:20
(UTC+00:00)

Envisat - Pass Details

Date: 12 June 2023
Orbit: 763 x 764 km, 98.2° (Epoch: 20 September)

Event Time Altitude Azimuth Distance (km) Brightness Sun altitude
Rises 10:08:30 0° 26° (NNE) 3,243 8.4 -6.8°
Reaches altitude 10° 10:11:34 10° 45° (NE) 2,312 7.2 -6.5°
Maximum altitude 10:14:59 18° 87° (E) 1,818 5.5 -6.2°
Drops below altitude 10° 10:18:24 10° 130° (SE) 2,301 5.5 -5.9°
Sets 10:21:26 0° 149° (SSE) 3,221 6.0 -5.6°
